Location: Clanezzo
(45.7500°N, 9.6000°E)
Time: 02:37:46
(UTC+00:00)

USA 245 - Pass Details

Date: 12 May 2021
Orbit: 265 x 982 km, 97.9° (Epoch: 13 June)

Event Time Altitude Azimuth Distance (km) Brightness Sun altitude
Exits shadow 20:04:28 25° 95° (E) 593 3.1 -12.4°
Maximum altitude 20:04:54 27° 72° (ENE) 555 3.1 -12.4°
Drops below altitude 10° 20:06:54 10° 9° (N) 1,095 5.3 -12.7°
Sets 20:08:52 0° 357° (N) 1,951 6.9 -12.9°
